This is the latest recevied weather packets stored in our database for station/object DL2MWB-13. If no packets are shown the sender has not sent any weather packets the latest 1 day(s).
| Time | Temp. | Humidity | Pressure | Rain* | Wind** | Luminosity | Snow |
|---|---|---|---|---|---|---|---|
| 1777791813 | 15.56° C | 47% | 1022 hPa | - | - | - | - |
| 1777791210 | 15° C | 48% | 1021 hPa | - | - | - | - |
| 1777790606 | 14.44° C | 53% | 1022 hPa | - | - | - | - |
| 1777790003 | 13.89° C | 60% | 1022 hPa | - | - | - | - |
| 1777789399 | 13.33° C | 62% | 1022 hPa | - | - | - | - |
| 1777788796 | 13.33° C | 62% | 1021 hPa | - | - | - | - |
| 1777788192 | 13.33° C | 61% | 1021 hPa | - | - | - | - |
| 1777787589 | 12.78° C | 58% | 1021 hPa | - | - | - | - |
| 1777786985 | 12.78° C | 59% | 1021 hPa | - | - | - | - |
| 1777786382 | 12.78° C | 59% | 1021 hPa | - | - | - | - |
| 1777785778 | 12.78° C | 58% | 1021 hPa | - | - | - | - |
| 1777785175 | 12.22° C | 58% | 1021 hPa | - | - | - | - |
| 1777784571 | 12.22° C | 58% | 1021 hPa | - | - | - | - |
| 1777783968 | 12.22° C | 58% | 1021 hPa | - | - | - | - |
| 1777783364 | 12.22° C | 58% | 1022 hPa | - | - | - | - |
| 1777782761 | 12.22° C | 58% | 1022 hPa | - | - | - | - |
| 1777782157 | 12.22° C | 58% | 1022 hPa | - | - | - | - |
| 1777781554 | 11.67° C | 58% | 1021 hPa | - | - | - | - |
| 1777780950 | 12.22° C | 57% | 1021 hPa | - | - | - | - |
| 1777780347 | 12.22° C | 57% | 1021 hPa | - | - | - | - |
| 1777779743 | 12.22° C | 57% | 1021 hPa | - | - | - | - |
| 1777779140 | 12.22° C | 57% | 1021 hPa | - | - | - | - |
| 1777778536 | 12.22° C | 57% | 1021 hPa | - | - | - | - |
| 1777777933 | 12.22° C | 57% | 1021 hPa | - | - | - | - |
| 1777777329 | 12.22° C | 58% | 1022 hPa | - | - | - | - |
* Rain since midnight (hover to see other rain measurements)
** Current wind speed in m/s (hover to see current wind gust speed)